Weather History for Jackson, MN

Change the Weather History Date:

Tuesday, November 20, 2012

  Actual Average Record
Temperature  
Mean Temperature 42 °F -  
Max Temperature 59 °F 37 °F 59 °F (2012)
Min Temperature 26 °F 21 °F 1 °F (1997)
Degree Days  
Heating Degree Days 22    
Moisture  
Dew Point 28 °F    
Average Humidity 63    
Maximum Humidity 100    
Minimum Humidity 23    
Precipitation  
Precipitation 0.00 in - - ()
Sea Level Pressure  
Sea Level Pressure 30.12 in    
Wind  
Wind Speed 8 mph (SW)    
Max Wind Speed 16 mph    
Max Gust Speed 21 mph    
Visibility 8 miles    
Events Fog    
Averages and records for this station are not official NWS values.
T = Trace of Precipitation, MM = Missing Value Source: NWS Daily Summary

Daily Weather History Graph

Daily Weather History Graph

Search for Another Location

Airport:

Trip Planner

Search our weather history database for the weather conditions in past years. The results will help you decide how hot, cold, wet, or windy it might be!

Date:

Astronomy

Nov. 20, 2012 Rise Set
Actual Time 7:21 AM CST 4:49 PM CST
Civil Twilight 6:49 AM CST 5:21 PM CST
Nautical Twilight 6:14 AM CST 5:56 PM CST
Astronomical Twilight 5:40 AM CST 6:30 PM CST
Moon 12:49 PM CST No Moon Set
Length of Visible Light 10h 31m
Length of Day
9h 28m
First Quarter, 51% of the Moon is Illuminated
Nov 20
First Quarter
Nov 28
Full
Dec 6
Last Quarter
Dec 13
New
Dec 19
First Quarter

Hourly Weather History & Observations

Time (CST) Temp. Windchill Dew Point Humidity Pressure Visibility Wind Dir Wind Speed Gust Speed Precip Events Conditions
12:13 AM 37.4 °F 31.4 °F 33.8 °F 87% 30.11 in 7.0 mi NW 8.1 mph - N/A   Clear
12:33 AM 37.4 °F 31.4 °F 32.0 °F 81% 30.11 in 7.0 mi NW 8.1 mph - N/A   Clear
12:53 AM 37.4 °F 30.8 °F 32.0 °F 81% 30.11 in 7.0 mi NW 9.2 mph - N/A   Clear
1:13 AM 35.6 °F 28.0 °F 32.0 °F 87% 30.11 in 7.0 mi NW 10.4 mph - N/A   Clear
1:33 AM 35.6 °F 28.6 °F 32.0 °F 87% 30.12 in 7.0 mi NW 9.2 mph - N/A   Clear
1:53 AM 35.6 °F 28.6 °F 32.0 °F 87% 30.12 in 7.0 mi NW 9.2 mph - N/A   Clear
2:13 AM 35.6 °F 28.0 °F 32.0 °F 87% 30.12 in 7.0 mi NNW 10.4 mph - N/A   Clear
2:33 AM 33.8 °F 27.0 °F 32.0 °F 93% 30.12 in 7.0 mi NNW 8.1 mph - N/A   Clear
2:53 AM 33.8 °F 27.0 °F 32.0 °F 93% 30.13 in 5.0 mi NNW 8.1 mph - N/A   Clear
3:13 AM 32.0 °F 25.6 °F 30.2 °F 93% 30.13 in 5.0 mi NW 6.9 mph - N/A   Clear
3:33 AM 32.0 °F 24.8 °F 28.4 °F 87% 30.13 in 4.0 mi NW 8.1 mph - N/A   Clear
3:53 AM 32.0 °F 25.6 °F 28.4 °F 87% 30.14 in 4.0 mi NW 6.9 mph - N/A   Clear
4:13 AM 32.0 °F 24.8 °F 28.4 °F 87% 30.15 in 4.0 mi NW 8.1 mph - N/A   Clear
4:33 AM 32.0 °F 24.2 °F 28.4 °F 87% 30.15 in 4.0 mi NNW 9.2 mph - N/A   Clear
4:53 AM 30.2 °F 24.3 °F 28.4 °F 93% 30.15 in 4.0 mi NNW 5.8 mph - N/A   Clear
5:13 AM 32.0 °F 26.4 °F 30.2 °F 93% 30.15 in 5.0 mi NNW 5.8 mph - N/A   Clear
5:33 AM 30.2 °F 23.4 °F 28.4 °F 93% 30.15 in 4.0 mi NW 6.9 mph - N/A   Clear
6:13 AM 30.2 °F 24.3 °F 28.4 °F 93% 30.16 in 3.0 mi NW 5.8 mph - N/A   Clear
6:33 AM 28.4 °F 23.3 °F 26.6 °F 93% 30.16 in 3.0 mi NW 4.6 mph - N/A   Clear
6:53 AM 28.4 °F 24.6 °F 26.6 °F 93% 30.16 in 2.5 mi WNW 3.5 mph - N/A   Clear
7:13 AM 26.6 °F - 24.8 °F 93% 30.15 in 0.2 mi Calm Calm - N/A Fog Light Freezing Fog
7:33 AM 26.6 °F 18.2 °F 24.8 °F 93% 30.16 in 0.2 mi West 8.1 mph - N/A Fog Light Freezing Fog
7:53 AM 28.4 °F 22.2 °F 26.6 °F 93% 30.18 in 2.0 mi West 5.8 mph - N/A   Clear
8:13 AM 30.2 °F 26.7 °F 28.4 °F 93% 30.19 in 2.0 mi West 3.5 mph - N/A   Clear
8:33 AM 32.0 °F 27.5 °F 30.2 °F 93% 30.19 in 2.5 mi West 4.6 mph - N/A   Clear
8:53 AM 32.0 °F 28.7 °F 30.2 °F 93% 30.19 in 2.5 mi West 3.5 mph - N/A   Clear
9:13 AM 32.0 °F 28.7 °F 32.0 °F 100% 30.19 in 3.0 mi West 3.5 mph - N/A   Clear
9:33 AM 33.8 °F - 32.0 °F 93% 30.18 in 4.0 mi Calm Calm - N/A   Clear
9:53 AM 35.6 °F - 33.8 °F 93% 30.18 in 5.0 mi Calm Calm - N/A   Clear
10:13 AM 39.2 °F - 33.8 °F 81% 30.19 in 5.0 mi Calm Calm - N/A   Haze
10:33 AM 41.0 °F 39.0 °F 35.6 °F 81% 30.18 in 7.0 mi SW 3.5 mph - N/A   Clear
10:53 AM 44.6 °F - 35.6 °F 71% 30.17 in 10.0 mi Calm Calm - N/A   Clear
11:13 AM 46.4 °F 45.2 °F 35.6 °F 66% 30.17 in 10.0 mi WSW 3.5 mph - N/A   Clear
11:33 AM 50.0 °F - 33.8 °F 54% 30.16 in 10.0 mi SW 3.5 mph - N/A   Clear
11:53 AM 51.8 °F - 32.0 °F 47% 30.15 in 10.0 mi SSW 5.8 mph - N/A   Clear
12:13 PM 51.8 °F - 30.2 °F 44% 30.15 in 10.0 mi South 4.6 mph - N/A   Clear
12:33 PM 53.6 °F - 26.6 °F 35% 30.14 in 10.0 mi SSW 4.6 mph - N/A   Clear
12:53 PM 55.4 °F - 26.6 °F 33% 30.14 in 10.0 mi SSW 6.9 mph - N/A   Clear
1:13 PM 55.4 °F - 19.4 °F 25% 30.14 in 10.0 mi WSW 8.1 mph - N/A   Clear
1:33 PM 57.2 °F - 23.0 °F 27% 30.13 in 10.0 mi SSW 6.9 mph - N/A   Clear
1:53 PM 57.2 °F - 23.0 °F 27% 30.12 in 10.0 mi South 5.8 mph - N/A   Clear
2:13 PM 59.0 °F - 21.2 °F 23% 30.11 in 10.0 mi SSW 5.8 mph - N/A   Clear
2:33 PM 59.0 °F - 21.2 °F 23% 30.11 in 10.0 mi South 6.9 mph - N/A   Clear
2:53 PM 59.0 °F - 23.0 °F 25% 30.10 in 10.0 mi SSW 6.9 mph - N/A   Clear
3:13 PM 59.0 °F - 24.8 °F 27% 30.10 in 10.0 mi South 8.1 mph - N/A   Clear
3:34 PM 55.4 °F - 23.0 °F 29% 30.10 in 10.0 mi South 6.9 mph - N/A   Clear
3:53 PM 55.4 °F - 23.0 °F 29% 30.10 in 10.0 mi South 6.9 mph - N/A   Clear
4:13 PM 55.4 °F - 23.0 °F 29% 30.10 in 10.0 mi South 6.9 mph - N/A   Clear
4:34 PM 53.6 °F - 23.0 °F 30% 30.10 in 10.0 mi South 5.8 mph - N/A   Clear
4:53 PM 53.6 °F - 23.0 °F 30% 30.10 in 10.0 mi SSE 4.6 mph - N/A   Clear
5:13 PM 51.8 °F - 23.0 °F 33% 30.10 in 10.0 mi SSE 5.8 mph - N/A   Clear
5:33 PM 50.0 °F - 26.6 °F 40% 30.10 in 10.0 mi SSE 6.9 mph - N/A   Clear
5:53 PM 50.0 °F - 26.6 °F 40% 30.09 in 10.0 mi SSE 8.1 mph - N/A   Clear
6:13 PM 50.0 °F - 24.8 °F 37% 30.09 in 10.0 mi South 8.1 mph - N/A   Scattered Clouds
6:33 PM 48.2 °F - 24.8 °F 40% 30.09 in 10.0 mi SSE 9.2 mph - N/A   Clear
6:53 PM 48.2 °F - 24.8 °F 40% 30.09 in 10.0 mi South 10.4 mph - N/A   Clear
7:13 PM 50.0 °F - 26.6 °F 40% 30.09 in 10.0 mi South 12.7 mph - N/A   Scattered Clouds
7:33 PM 46.4 °F 41.9 °F 26.6 °F 46% 30.08 in 10.0 mi South 9.2 mph - N/A   Scattered Clouds
7:53 PM 44.6 °F 39.2 °F 26.6 °F 49% 30.08 in 10.0 mi South 10.4 mph - N/A   Clear
8:13 PM 46.4 °F 40.1 °F 28.4 °F 50% 30.07 in 10.0 mi South 15.0 mph - N/A   Clear
8:33 PM 46.4 °F 40.7 °F 28.4 °F 50% 30.07 in 10.0 mi South 12.7 mph - N/A   Clear
8:53 PM 46.4 °F 40.7 °F 28.4 °F 50% 30.07 in 10.0 mi South 12.7 mph - N/A   Clear
9:13 PM 44.6 °F 39.2 °F 28.4 °F 53% 30.08 in 10.0 mi South 10.4 mph - N/A   Clear
9:33 PM 46.4 °F 40.7 °F 30.2 °F 53% 30.07 in 10.0 mi South 12.7 mph - N/A   Clear
9:53 PM 46.4 °F 40.7 °F 30.2 °F 53% 30.06 in 10.0 mi South 12.7 mph - N/A   Clear
10:13 PM 48.2 °F - 30.2 °F 50% 30.06 in 10.0 mi South 13.8 mph 19.6 mph N/A   Clear
10:33 PM 46.4 °F 40.4 °F 30.2 °F 53% 30.06 in 10.0 mi South 13.8 mph - N/A   Clear
10:53 PM 48.2 °F - 30.2 °F 50% 30.04 in 10.0 mi South 15.0 mph - N/A   Clear
11:13 PM 48.2 °F - 30.2 °F 50% 30.04 in 10.0 mi South 13.8 mph 20.7 mph N/A   Clear
11:33 PM 46.4 °F 40.1 °F 32.0 °F 57% 30.03 in 10.0 mi South 15.0 mph 19.6 mph N/A   Clear
11:53 PM 46.4 °F 39.8 °F 32.0 °F 57% 30.03 in 10.0 mi South 16.1 mph - N/A   Clear